カタログに戻る

CHINASAT 6D

運用中通信GEO
NORAD 52255·PAYLOAD·🇨🇳 China

打ち上げ Apr 15, 2022 から Xichang Satellite Launch Center

Loading…

TLE

最新Source: Space-Track

元期: Sep 13, 2026, 16:09 UTC

1 52255U 22038A   26256.67323882  .00000000  00000-0  00000+0 0  9993
2 52255   0.0399 210.7942 0002005  16.9206 132.2682  1.00267730 16308

AllMySatでCHINASAT 6Dをリアルタイム追跡

Download on the App Store